Location: Kuppenheim
(48.8299°N, 8.2568°E)
Time: 14:59:11
(UTC+00:00)

DELTA 2 R/B (1) - Pass Details

Date: 20 June 2021
Orbit: 790 x 803 km, 39.6° (Epoch: 04 August)

Event Time Altitude Azimuth Distance (km) Brightness Sun altitude
Exits shadow 01:57:49 10° 242° (WSW) 2,355 5.5 -10.4°
Reaches altitude 10° 01:57:50 10° 242° (WSW) 2,347 5.5 -10.4°
Maximum altitude 02:02:41 32° 181° (S) 1,334 4.3 -10.0°
Drops below altitude 10° 02:07:32 10° 120° (ESE) 2,351 6.1 -9.5°
Sets 02:10:14 0° 111° (ESE) 3,282 7.0 -9.2°
